Vorticity
3 4 1 2 4 5 6 7 7 8 7 6 6 7 6 7 9 9 7 8 8 6 6 5 6 7 7 9 8 7 6 5 4 4 4 5 5 4 4 4 4 5 5
4 3 4 2 5 7 7 6 6 7 7 7 6 6 6 7 8 8 7 8 6 5 6 5 5 6 7 6 7 7 6 5 5 4 4 4 4 4 4 4 5 5 6
2 3 4 5 8 6 6 5 6 6 8 9 9 7 6 6 7 7 8 6 6 5 5 5 5 5 5 5 4 4 4 4 4 4 4 4 4 4 4 5 5 5 6
4 3 3 5 5 6 5 5 5 3 4 7 11 11 8 6 7 9 7 7 6 5 5 5 5 5 4 5 5 5 4 4 4 4 5 5 6 6 6 6 6 7 7
4 4 6 4 4 4 5 5 5 4 4 6 7 11 12 10 9 7 8 6 5 5 5 5 5 5 5 5 5 5 6 6 6 7 7 7 7 8 10 10 9 8 8
-22 -15 -3 6 3 3 4 4 4 3 4 5 7 7 11 14 10 8 7 7 8 7 7 7 7 7 7 7 7 8 8 8 9 9 10 9 8 8 7 7 7 7 7
5 13 7 4 3 2 3 3 4 3 3 4 5 7 7 10 16 12 9 9 8 7 7 7 6 7 7 7 7 8 7 7 7 7 7 7 7 8 9 9 8 9 9
7 3 2 1 4 3 3 2 3 3 3 4 5 6 7 7 8 12 13 10 8 9 9 9 9 8 7 7 7 6 6 6 6 5 5 5 5 5 5 5 5 5 5
3 3 1 2 3 3 2 2 2 4 2 2 3 5 7 7 6 6 6 5 5 4 5 4 4 4 5 5 4 4 5 5 5 6 6 7 7 7 7 6 6 5 8
6 3 3 3 4 4 3 3 2 3 2 2 2 3 5 6 6 6 5 4 4 4 5 5 5 6 5 5 6 6 6 7 7 6 6 5 5 4 5 5 5 5 5
7 8 7 4 5 5 4 3 3 2 2 1 2 2 3 5 6 6 6 5 5 5 5 5 6 6 7 7 6 5 5 5 5 4 3 4 4 5 5 5 5 7 7
6 8 7 6 2 3 4 -0 4 3 1 1 2 2 2 3 4 5 5 7 5 5 5 4 5 6 5 5 5 5 5 5 6 6 6 7 7 6 6 6 8 8 7
4 6 9 10 7 8 1 5 1 4 2 1 1 2 3 3 3 4 5 5 6 5 5 4 5 6 6 6 6 7 7 7 7 6 6 7 8 12 14 14 14 11 11
5 5 8 6 12 4 -8 9 4 5 4 3 2 2 3 4 3 3 4 4 6 5 4 4 6 5 6 7 7 7 7 7 8 12 16 14 10 8 8 8 8 10 9
1 2 4 6 6 6 9 5 4 4 8 4 2 2 3 4 5 4 4 4 6 5 5 5 6 7 7 7 6 7 8 10 14 8 6 9 8 8 7 7 8 8 8
3 1 3 4 2 2 5 10 9 8 11 8 4 2 2 3 4 6 5 5 6 6 5 6 7 8 7 6 7 9 12 11 7 8 7 8 7 6 6 6 6 6 6
6 2 3 1 3 2 4 2 3 3 3 7 7 5 4 3 5 6 7 7 5 6 6 6 7 6 6 9 10 13 10 8 8 8 6 6 5 5 5 5 5 6 6
2 5 5 5 5 4 3 4 4 3 2 4 5 6 4 2 5 8 8 9 6 6 7 7 6 6 9 11 12 10 9 8 6 6 6 6 6 6 5 6 6 6 5
-0 1 2 4 1 12 14 6 4 2 3 4 4 6 5 3 7 10 9 9 7 6 7 5 6 10 11 11 9 8 7 7 7 6 6 7 7 6 6 6 6 6 7
1 3 2 2 3 8 18 11 7 5 6 6 3 7 7 7 8 11 10 9 7 7 5 7 9 10 9 8 7 6 7 6 6 6 6 5 5 6 7 7 8 7 8
3 2 3 3 5 12 13 5 3 5 11 12 9 8 9 8 11 11 10 7 7 4 7 9 8 9 9 7 7 7 6 6 6 7 5 5 7 6 5 8 8 7 7
8 5 3 2 -1 15 8 2 13 12 9 12 10 7 6 8 12 10 7 7 4 7 7 6 7 8 8 8 8 6 7 6 7 4 4 5 5 7 6 9 10 9 8
9 7 5 7 6 17 5 12 7 6 9 6 7 10 9 11 12 8 7 4 6 5 6 6 8 9 10 10 10 8 10 5 5 3 4 4 6 8 11 11 11 9 8
16 7 6 10 6 18 8 7 4 5 12 13 18 7 14 14 8 7 4 5 5 4 5 5 6 8 11 10 12 10 8 7 8 7 5 3 3 5 7 7 7 7 6
11 14 10 4 13 14 4 7 6 7 9 11 5 12 12 11 8 4 4 4 3 2 3 3 3 4 7 9 10 10 9 7 7 7 6 5 8 10 10 9 7 7 6
8 7 15 2 15 4 7 6 7 11 17 7 12 12 13 9 4 4 3 3 2 2 2 1 2 3 4 8 8 8 8 7 5 5 7 8 10 10 9 6 5 6 5
Height
3162 3161 3161 3161 3160 3159 3158 3157 3156 3154 3153 3151 3150 3148 3146 3145 3143 3142 3142 3142 3142 3142 3142 3141 3142 3143 3143 3143 3144 3144 3145 3146 3147 3147 3147 3147 3146 3146 3146 3145 3145 3144 3144
3161 3160 3160 3160 3160 3159 3158 3157 3156 3154 3152 3151 3149 3148 3146 3145 3143 3142 3142 3142 3142 3142 3142 3142 3142 3142 3142 3143 3143 3144 3144 3145 3145 3145 3145 3145 3144 3144 3143 3143 3143 3142 3142
3160 3160 3160 3159 3159 3159 3158 3157 3156 3154 3153 3151 3150 3148 3146 3145 3143 3143 3142 3142 3142 3141 3141 3141 3142 3142 3142 3142 3142 3143 3143 3143 3143 3143 3143 3142 3141 3141 3141 3141 3140 3140 3139
3159 3159 3159 3159 3158 3158 3158 3157 3156 3154 3153 3151 3149 3148 3146 3145 3143 3143 3142 3141 3141 3141 3141 3141 3141 3141 3141 3141 3141 3141 3142 3141 3141 3141 3141 3140 3140 3139 3139 3138 3137 3137 3136
3159 3159 3159 3159 3158 3158 3158 3157 3155 3154 3153 3151 3149 3147 3145 3144 3143 3142 3142 3141 3140 3140 3140 3141 3140 3140 3140 3140 3140 3140 3140 3140 3139 3139 3139 3138 3137 3136 3136 3135 3134 3134 3134
3158 3158 3159 3159 3157 3156 3157 3156 3155 3153 3152 3151 3149 3148 3145 3143 3142 3141 3141 3141 3141 3140 3140 3140 3140 3139 3139 3139 3138 3138 3138 3137 3136 3137 3136 3135 3135 3134 3133 3133 3132 3132 3131
3156 3156 3157 3157 3156 3156 3156 3156 3154 3153 3152 3150 3149 3148 3146 3144 3142 3141 3142 3141 3141 3140 3140 3139 3139 3138 3137 3137 3137 3137 3136 3135 3135 3135 3134 3133 3132 3131 3130 3130 3129 3129 3128
3153 3154 3155 3154 3155 3154 3155 3154 3154 3153 3152 3150 3149 3148 3146 3145 3143 3142 3141 3141 3140 3140 3139 3139 3138 3137 3136 3136 3135 3135 3134 3133 3132 3131 3131 3130 3129 3128 3127 3127 3126 3126 3125
3152 3152 3153 3152 3152 3152 3152 3153 3153 3152 3151 3150 3149 3147 3146 3145 3144 3143 3142 3141 3141 3140 3140 3139 3138 3137 3136 3135 3134 3133 3133 3132 3130 3129 3128 3127 3127 3126 3124 3123 3122 3122 3122
3150 3150 3150 3151 3150 3150 3150 3151 3151 3150 3150 3149 3148 3147 3146 3145 3144 3143 3142 3141 3141 3140 3139 3138 3137 3136 3135 3134 3133 3132 3131 3130 3129 3128 3126 3125 3124 3123 3121 3120 3119 3118 3118
3146 3147 3148 3148 3148 3148 3148 3148 3149 3149 3148 3148 3147 3146 3145 3144 3143 3142 3142 3141 3140 3140 3138 3137 3136 3135 3133 3132 3131 3130 3129 3127 3126 3125 3123 3122 3121 3119 3118 3116 3115 3115 3114
3142 3143 3145 3145 3145 3146 3146 3147 3147 3147 3147 3146 3145 3144 3144 3143 3142 3141 3140 3140 3139 3138 3137 3135 3134 3133 3132 3130 3128 3127 3126 3125 3123 3121 3119 3118 3116 3114 3113 3112 3112 3111 3108
3138 3140 3140 3141 3142 3142 3143 3142 3143 3144 3144 3144 3143 3143 3142 3141 3140 3139 3138 3137 3136 3136 3134 3133 3131 3131 3129 3127 3125 3124 3122 3121 3119 3117 3115 3113 3111 3110 3108 3107 3107 3104 3104
3133 3135 3136 3137 3138 3138 3141 3139 3140 3140 3141 3141 3141 3140 3140 3139 3138 3137 3137 3136 3134 3133 3132 3131 3129 3128 3126 3124 3122 3120 3119 3117 3114 3112 3110 3108 3107 3105 3104 3103 3101 3101 3099
3129 3130 3132 3132 3134 3135 3136 3135 3135 3136 3136 3137 3137 3138 3137 3136 3136 3135 3134 3133 3132 3131 3129 3128 3126 3124 3122 3120 3118 3116 3114 3111 3109 3107 3106 3104 3103 3101 3100 3098 3097 3095 3094
3124 3125 3125 3127 3129 3130 3131 3132 3132 3132 3132 3133 3133 3134 3134 3133 3132 3131 3131 3130 3129 3128 3126 3125 3122 3120 3118 3116 3114 3112 3109 3107 3105 3103 3101 3100 3099 3097 3096 3094 3093 3091 3089
3118 3119 3120 3122 3123 3125 3125 3126 3127 3128 3128 3128 3128 3129 3129 3128 3128 3127 3127 3127 3126 3124 3123 3121 3119 3116 3114 3111 3110 3108 3105 3103 3101 3100 3098 3096 3094 3093 3091 3089 3087 3085 3083
3112 3113 3114 3116 3117 3119 3120 3121 3122 3122 3123 3123 3123 3123 3124 3124 3124 3123 3122 3122 3121 3120 3119 3117 3115 3112 3109 3107 3105 3103 3101 3098 3097 3096 3094 3092 3090 3087 3085 3083 3081 3078 3076
3105 3106 3108 3110 3111 3112 3113 3114 3115 3117 3117 3117 3117 3117 3118 3118 3118 3118 3118 3117 3117 3116 3115 3113 3111 3107 3105 3102 3100 3098 3096 3094 3093 3091 3089 3086 3084 3082 3079 3076 3074 3071 3068
3095 3098 3101 3103 3105 3106 3106 3107 3109 3110 3110 3111 3111 3111 3112 3113 3113 3113 3113 3113 3113 3112 3110 3108 3106 3103 3101 3098 3096 3094 3092 3090 3088 3086 3083 3080 3078 3076 3072 3069 3066 3063 3060
3084 3089 3093 3095 3098 3099 3100 3102 3102 3104 3104 3105 3105 3105 3106 3107 3108 3108 3108 3109 3108 3108 3106 3104 3101 3099 3097 3094 3092 3089 3087 3085 3083 3081 3077 3074 3072 3069 3065 3061 3057 3053 3050
3075 3079 3083 3086 3090 3092 3093 3095 3096 3097 3098 3098 3099 3099 3101 3102 3103 3103 3104 3105 3104 3103 3101 3100 3098 3096 3093 3090 3088 3086 3083 3081 3078 3075 3071 3068 3064 3061 3056 3052 3048 3044 3040
3064 3069 3074 3078 3082 3084 3086 3088 3089 3091 3091 3092 3092 3094 3095 3096 3098 3099 3100 3100 3100 3099 3098 3096 3093 3091 3088 3086 3082 3079 3075 3073 3071 3069 3066 3062 3058 3054 3049 3044 3040 3036 3033
3054 3060 3064 3070 3073 3075 3079 3082 3083 3085 3086 3087 3087 3089 3090 3091 3093 3094 3096 3096 3096 3095 3094 3092 3089 3086 3083 3080 3076 3073 3070 3066 3061 3059 3057 3051 3047 3043 3040 3036 3032 3028 3024
3045 3049 3055 3061 3064 3069 3071 3074 3076 3078 3078 3080 3081 3083 3085 3087 3089 3091 3092 3092 3092 3091 3089 3087 3084 3081 3077 3074 3070 3067 3063 3059 3054 3049 3046 3044 3038 3032 3027 3024 3020 3017 3012
3033 3039 3046 3052 3057 3061 3064 3067 3069 3070 3072 3074 3076 3078 3080 3083 3085 3086 3087 3087 3087 3085 3083 3081 3078 3075 3071 3067 3063 3059 3055 3051 3046 3039 3033 3029 3024 3023 3018 3014 3010 3007 3001